View from above orbital plane
|
View from above satellite
|
Ground track
|
The orbit data is extracted from the following two-line orbital elements,
1 40906U 15049H 22179.06679628 .00004424 00000-0 21318-3 0 9995
2 40906 97.4918 182.3945 0012901 329.6608 101.7945 15.19184352374536
Epoch (UTC): | 28 June 2022 01:36:11 |
Eccentricity: | 0.0012901 |
inclination: | 97.4918° |
perigee height: | 499 km |
apogee height: | 517 km |
right ascension of ascending node: | 182.3945° |
argument of perigee: | 329.6608° |
revolutions per day: | 15.19184352 |
mean anomaly at epoch: | 101.7945° |
orbit number at epoch: | 37453 |
The dashed part of the orbit path shows where the satellite is in the earth's shadow,
|
|